Torna al catalogo

SL-16 DEB

AttivoLEO
NORAD 22432·DEBRIS·🇷🇺 Russia

Lanciato Dec 25, 1992 da Baikonur Cosmodrome

Loading…

Prossimi Passaggi (prossime 24 ore)

TLE

AggiornatoSource: Space-Track

Epoca: Sep 14, 2026, 03:09 UTC

1 22432U 92093DZ  26257.13191294  .00000616  00000-0  37720-3 0  9993
2 22432  70.8321  59.1001 0099634 215.4490 265.4519 14.07434474718396

Traccia SL-16 DEB in tempo reale con AllMySat

Download on the App Store